GEFSNGP_prec_meanprecacc_162.txt.gz
Total_Precipitation_Accumulation
0.39 0.38 0.39 0.38 0.30 0.26 0.31 0.38 0.66 0.95 1.29 1.59 1.66 1.69 1.76 1.90 1.81 1.58 1.41 1.26 1.13 1.09 1.12 1.07 1.01 0.97 0.94 0.98 0.94 0.94 0.99 1.01 0.99 0.96 0.94 0.93 0.85 0.75 0.66 0.57 0.52 0.49 0.44 0.41
0.38 0.34 0.42 0.39 0.37 0.37 0.42 0.49 0.70 1.06 1.48 1.70 1.70 1.67 1.74 1.81 1.72 1.54 1.31 1.17 1.09 1.07 1.13 1.08 1.01 0.92 0.85 0.90 0.92 0.94 0.95 0.93 0.92 0.92 0.92 0.87 0.81 0.77 0.68 0.58 0.49 0.45 0.39 0.37
0.57 0.38 0.56 0.79 0.59 0.58 0.64 0.65 0.83 1.22 1.45 1.51 1.61 1.61 1.64 1.73 1.80 1.68 1.44 1.33 1.33 1.35 1.34 1.24 1.10 0.99 0.93 0.94 0.96 0.98 1.01 0.95 0.94 0.93 0.87 0.80 0.67 0.64 0.63 0.59 0.48 0.42 0.37 0.35
0.57 0.69 1.12 1.00 0.54 0.58 0.67 0.71 0.76 0.89 1.05 1.21 1.32 1.36 1.50 1.67 1.79 1.76 1.66 1.61 1.62 1.58 1.44 1.31 1.20 1.13 1.06 0.99 1.02 1.07 1.02 0.94 0.85 0.82 0.78 0.72 0.68 0.61 0.56 0.53 0.48 0.45 0.40 0.37
0.78 1.04 1.21 0.97 0.58 0.51 0.74 0.90 0.72 0.76 0.78 0.81 0.84 1.00 1.35 1.52 1.58 1.60 1.64 1.60 1.51 1.43 1.34 1.27 1.18 1.12 1.03 0.98 0.94 0.93 0.88 0.81 0.72 0.70 0.74 0.74 0.68 0.63 0.58 0.52 0.47 0.41 0.39 0.38
0.86 1.14 1.38 1.16 0.53 0.33 0.62 1.21 0.87 0.77 0.77 0.79 0.89 1.10 1.20 1.16 1.15 1.19 1.24 1.27 1.28 1.25 1.18 1.13 1.05 0.95 0.88 0.87 0.83 0.79 0.75 0.73 0.64 0.61 0.65 0.72 0.63 0.59 0.54 0.49 0.45 0.38 0.37 0.39
0.84 1.07 1.21 0.67 0.36 0.46 1.09 1.43 0.97 0.82 0.80 0.87 1.00 0.97 0.79 0.75 0.83 0.94 1.01 1.05 1.08 1.13 1.13 1.02 0.86 0.79 0.80 0.78 0.74 0.60 0.57 0.62 0.62 0.59 0.58 0.59 0.57 0.57 0.54 0.49 0.48 0.46 0.44 0.45
0.86 1.15 1.27 0.52 0.39 0.75 0.92 0.73 0.72 0.74 0.72 0.71 0.66 0.57 0.56 0.59 0.63 0.67 0.78 0.90 0.89 0.92 0.90 0.82 0.76 0.76 0.77 0.73 0.61 0.51 0.54 0.62 0.63 0.59 0.49 0.49 0.57 0.59 0.54 0.50 0.47 0.47 0.47 0.48
0.89 1.05 0.78 0.38 0.39 0.45 0.46 0.53 0.55 0.54 0.51 0.46 0.44 0.42 0.42 0.50 0.55 0.58 0.62 0.71 0.73 0.71 0.73 0.76 0.77 0.79 0.76 0.68 0.57 0.54 0.56 0.59 0.59 0.55 0.51 0.51 0.55 0.57 0.56 0.52 0.44 0.42 0.44 0.47
0.59 0.62 0.40 0.30 0.27 0.28 0.31 0.39 0.41 0.44 0.49 0.42 0.42 0.41 0.40 0.44 0.51 0.58 0.60 0.60 0.62 0.64 0.64 0.68 0.68 0.67 0.63 0.54 0.53 0.57 0.60 0.58 0.57 0.58 0.57 0.52 0.47 0.45 0.46 0.45 0.40 0.38 0.39 0.39
0.56 0.46 0.38 0.37 0.29 0.24 0.26 0.31 0.35 0.41 0.49 0.48 0.44 0.48 0.44 0.43 0.48 0.55 0.59 0.61 0.62 0.63 0.63 0.59 0.57 0.53 0.49 0.48 0.50 0.56 0.56 0.52 0.52 0.54 0.53 0.50 0.41 0.35 0.33 0.28 0.21 0.22 0.24 0.24
0.54 0.41 0.42 0.39 0.28 0.25 0.29 0.33 0.34 0.39 0.49 0.45 0.42 0.47 0.49 0.49 0.48 0.49 0.53 0.55 0.58 0.54 0.53 0.52 0.47 0.45 0.43 0.42 0.42 0.50 0.52 0.46 0.42 0.42 0.41 0.37 0.34 0.30 0.22 0.15 0.12 0.09 0.09 0.10
0.26 0.24 0.25 0.26 0.28 0.33 0.37 0.37 0.41 0.45 0.41 0.34 0.39 0.44 0.46 0.52 0.49 0.47 0.46 0.46 0.48 0.44 0.42 0.42 0.41 0.43 0.40 0.35 0.37 0.43 0.45 0.40 0.34 0.30 0.32 0.30 0.27 0.29 0.30 0.18 0.09 0.06 0.05 0.07
0.24 0.29 0.37 0.40 0.45 0.45 0.41 0.34 0.34 0.34 0.32 0.30 0.35 0.41 0.41 0.44 0.41 0.41 0.45 0.42 0.37 0.36 0.35 0.35 0.37 0.37 0.33 0.29 0.32 0.34 0.31 0.24 0.22 0.24 0.24 0.21 0.20 0.20 0.23 0.26 0.24 0.19 0.10 0.06
0.33 0.37 0.43 0.40 0.39 0.35 0.30 0.26 0.26 0.28 0.29 0.32 0.33 0.36 0.37 0.39 0.38 0.36 0.36 0.33 0.31 0.33 0.32 0.29 0.27 0.31 0.29 0.28 0.28 0.27 0.24 0.20 0.17 0.17 0.17 0.16 0.15 0.13 0.13 0.15 0.22 0.26 0.22 0.14
0.27 0.25 0.27 0.27 0.27 0.25 0.24 0.24 0.25 0.26 0.26 0.29 0.30 0.32 0.32 0.30 0.29 0.26 0.24 0.26 0.33 0.37 0.35 0.29 0.24 0.24 0.24 0.28 0.30 0.27 0.21 0.16 0.12 0.11 0.11 0.11 0.09 0.09 0.10 0.12 0.16 0.21 0.20 0.15
0.24 0.24 0.23 0.20 0.18 0.18 0.17 0.17 0.16 0.17 0.18 0.22 0.22 0.19 0.20 0.20 0.22 0.23 0.23 0.24 0.28 0.29 0.28 0.26 0.21 0.17 0.19 0.24 0.26 0.20 0.13 0.08 0.06 0.05 0.07 0.06 0.06 0.05 0.07 0.09 0.12 0.14 0.12 0.09
0.22 0.18 0.16 0.15 0.13 0.11 0.11 0.10 0.10 0.12 0.13 0.14 0.13 0.14 0.15 0.17 0.20 0.20 0.21 0.22 0.24 0.24 0.22 0.19 0.17 0.16 0.16 0.17 0.18 0.15 0.10 0.08 0.04 0.03 0.03 0.04 0.04 0.05 0.05 0.06 0.08 0.09 0.08 0.08
0.16 0.10 0.08 0.09 0.08 0.08 0.08 0.07 0.07 0.07 0.08 0.08 0.09 0.11 0.13 0.14 0.15 0.15 0.17 0.21 0.24 0.24 0.20 0.14 0.12 0.13 0.12 0.11 0.10 0.08 0.06 0.05 0.05 0.04 0.04 0.03 0.03 0.04 0.03 0.03 0.04 0.05 0.05 0.06
0.11 0.06 0.06 0.07 0.06 0.06 0.06 0.04 0.04 0.05 0.05 0.06 0.07 0.08 0.09 0.10 0.09 0.12 0.16 0.21 0.22 0.17 0.13 0.10 0.09 0.08 0.07 0.06 0.06 0.04 0.03 0.03 0.03 0.04 0.04 0.04 0.03 0.03 0.02 0.02 0.03 0.04 0.05 0.06
0.07 0.07 0.07 0.05 0.05 0.05 0.05 0.03 0.03 0.04 0.04 0.05 0.05 0.06 0.07 0.07 0.08 0.11 0.16 0.21 0.19 0.14 0.11 0.09 0.08 0.06 0.05 0.04 0.03 0.03 0.02 0.02 0.02 0.02 0.02 0.02 0.02 0.02 0.02 0.02 0.02 0.04 0.05 0.06
0.06 0.06 0.06 0.06 0.05 0.05 0.05 0.04 0.04 0.04 0.04 0.04 0.05 0.05 0.07 0.09 0.09 0.11 0.12 0.13 0.12 0.08 0.07 0.06 0.06 0.05 0.03 0.02 0.02 0.01 0.02 0.01 0.01 0.01 0.01 0.02 0.02 0.02 0.03 0.04 0.04 0.03 0.04 0.04
0.06 0.05 0.06 0.07 0.07 0.06 0.05 0.07 0.06 0.04 0.04 0.05 0.05 0.05 0.07 0.09 0.09 0.08 0.08 0.06 0.05 0.05 0.06 0.06 0.05 0.03 0.02 0.02 0.01 0.01 0.01 0.01 0.01 0.01 0.01 0.02 0.02 0.02 0.02 0.03 0.03 0.03 0.04 0.03
0.08 0.06 0.06 0.07 0.08 0.10 0.09 0.07 0.05 0.05 0.05 0.04 0.04 0.04 0.04 0.06 0.07 0.06 0.05 0.04 0.04 0.03 0.03 0.04 0.04 0.03 0.02 0.01 0.01 0.01 0.01 0.01 0.01 0.01 0.01 0.01 0.02 0.02 0.02 0.03 0.03 0.03 0.03 0.03
0.10 0.09 0.09 0.09 0.11 0.12 0.08 0.06 0.04 0.04 0.04 0.03 0.03 0.03 0.02 0.03 0.03 0.03 0.03 0.03 0.04 0.03 0.02 0.02 0.02 0.02 0.01 0.01 0.01 0.01 0.01 0.01 0.01 0.01 0.01 0.01 0.01 0.01 0.02 0.03 0.03 0.03 0.02 0.03
0.18 0.14 0.13 0.13 0.10 0.07 0.05 0.05 0.04 0.04 0.04 0.04 0.03 0.02 0.02 0.03 0.03 0.03 0.03 0.03 0.03 0.03 0.02 0.01 0.01 0.01 0.01 0.01 0.01 0.01 0.01 0.01 0.01 0.01 0.01 0.01 0.01 0.01 0.02 0.03 0.03 0.02 0.03 0.03
0.35 0.26 0.20 0.16 0.12 0.07 0.06 0.06 0.05 0.03 0.03 0.04 0.03 0.03 0.03 0.04 0.04 0.03 0.02 0.02 0.02 0.02 0.01 0.01 0.01 0.01 0.01 0.01 0.01 0.01 0.01 0.01 0.01 0.01 0.01 0.01 0.02 0.02 0.02 0.02 0.02 0.02 0.03 0.03

GEFSNGP_prec_meanprecacc_168.txt.gz
Total_Precipitation_Accumulation
0.39 0.39 0.39 0.39 0.31 0.27 0.33 0.39 0.67 0.96 1.30 1.60 1.67 1.71 1.78 1.92 1.83 1.59 1.42 1.28 1.15 1.11 1.15 1.12 1.06 1.04 1.02 1.07 1.07 1.12 1.13 1.10 1.06 1.01 0.99 0.97 0.89 0.80 0.71 0.63 0.59 0.57 0.50 0.47
0.38 0.34 0.43 0.40 0.38 0.38 0.43 0.51 0.72 1.07 1.50 1.71 1.71 1.68 1.75 1.83 1.73 1.55 1.33 1.19 1.11 1.09 1.15 1.10 1.04 1.00 0.94 0.99 1.03 1.08 1.10 1.05 1.00 0.97 0.97 0.91 0.86 0.81 0.73 0.62 0.55 0.51 0.46 0.43
0.57 0.38 0.56 0.80 0.60 0.59 0.65 0.67 0.85 1.23 1.46 1.52 1.62 1.62 1.66 1.75 1.83 1.70 1.46 1.36 1.35 1.38 1.36 1.25 1.12 1.03 1.00 1.02 1.05 1.08 1.12 1.05 1.02 0.99 0.92 0.84 0.72 0.67 0.67 0.62 0.52 0.48 0.44 0.42
0.57 0.69 1.12 1.00 0.55 0.60 0.69 0.73 0.78 0.91 1.06 1.22 1.33 1.38 1.53 1.70 1.83 1.79 1.68 1.63 1.64 1.60 1.46 1.33 1.21 1.15 1.09 1.05 1.08 1.14 1.09 1.00 0.91 0.88 0.83 0.76 0.71 0.64 0.59 0.57 0.53 0.51 0.49 0.45
0.78 1.05 1.21 0.98 0.59 0.52 0.76 0.91 0.74 0.78 0.80 0.83 0.87 1.02 1.39 1.57 1.62 1.63 1.66 1.61 1.52 1.43 1.35 1.28 1.19 1.13 1.05 1.00 0.98 0.99 0.94 0.86 0.76 0.73 0.79 0.78 0.71 0.66 0.60 0.56 0.52 0.47 0.47 0.44
0.86 1.16 1.40 1.18 0.54 0.33 0.63 1.23 0.88 0.78 0.78 0.81 0.92 1.13 1.24 1.21 1.19 1.22 1.25 1.27 1.29 1.26 1.19 1.14 1.06 0.96 0.89 0.90 0.88 0.85 0.82 0.78 0.68 0.64 0.69 0.75 0.67 0.61 0.56 0.52 0.49 0.42 0.41 0.44
0.85 1.09 1.23 0.68 0.37 0.47 1.10 1.44 0.98 0.84 0.82 0.90 1.05 1.02 0.83 0.77 0.85 0.95 1.02 1.06 1.09 1.14 1.13 1.02 0.87 0.80 0.82 0.81 0.78 0.66 0.65 0.69 0.69 0.65 0.63 0.62 0.62 0.62 0.57 0.51 0.50 0.48 0.47 0.47
0.87 1.17 1.29 0.53 0.41 0.78 0.94 0.74 0.74 0.76 0.75 0.76 0.72 0.61 0.58 0.60 0.64 0.68 0.79 0.91 0.90 0.92 0.91 0.83 0.77 0.78 0.80 0.77 0.66 0.59 0.64 0.71 0.70 0.65 0.54 0.53 0.61 0.64 0.58 0.51 0.48 0.48 0.50 0.50
0.91 1.07 0.80 0.39 0.41 0.49 0.48 0.55 0.57 0.57 0.54 0.50 0.48 0.45 0.44 0.51 0.56 0.59 0.64 0.73 0.74 0.72 0.74 0.78 0.80 0.81 0.79 0.72 0.62 0.63 0.67 0.68 0.66 0.61 0.56 0.55 0.58 0.61 0.58 0.54 0.45 0.43 0.46 0.49
0.61 0.62 0.41 0.32 0.30 0.30 0.33 0.42 0.44 0.47 0.53 0.45 0.45 0.43 0.42 0.45 0.52 0.59 0.62 0.61 0.63 0.64 0.66 0.71 0.71 0.68 0.64 0.56 0.55 0.62 0.67 0.63 0.62 0.62 0.61 0.55 0.50 0.48 0.48 0.46 0.41 0.39 0.40 0.40
0.57 0.47 0.40 0.39 0.31 0.26 0.28 0.34 0.39 0.44 0.52 0.52 0.47 0.50 0.46 0.45 0.50 0.56 0.60 0.61 0.63 0.64 0.64 0.62 0.60 0.55 0.51 0.49 0.53 0.60 0.60 0.55 0.55 0.57 0.56 0.51 0.43 0.37 0.35 0.29 0.22 0.23 0.24 0.24
0.56 0.43 0.44 0.41 0.30 0.27 0.33 0.37 0.37 0.42 0.52 0.48 0.45 0.50 0.51 0.51 0.50 0.50 0.54 0.56 0.58 0.55 0.56 0.55 0.50 0.48 0.47 0.45 0.46 0.54 0.55 0.49 0.45 0.45 0.43 0.38 0.35 0.31 0.24 0.16 0.13 0.10 0.10 0.11
0.28 0.26 0.27 0.28 0.30 0.37 0.42 0.41 0.45 0.48 0.44 0.37 0.42 0.47 0.48 0.54 0.50 0.48 0.46 0.47 0.49 0.46 0.45 0.47 0.45 0.46 0.43 0.39 0.41 0.46 0.48 0.43 0.37 0.32 0.34 0.32 0.28 0.30 0.31 0.19 0.10 0.07 0.06 0.08
0.25 0.29 0.38 0.42 0.48 0.48 0.46 0.40 0.39 0.37 0.35 0.33 0.37 0.43 0.43 0.46 0.42 0.41 0.45 0.43 0.38 0.38 0.39 0.40 0.41 0.40 0.35 0.32 0.35 0.38 0.34 0.28 0.26 0.28 0.27 0.23 0.21 0.21 0.23 0.27 0.25 0.20 0.11 0.07
0.34 0.37 0.44 0.42 0.41 0.38 0.34 0.31 0.30 0.32 0.32 0.34 0.35 0.38 0.38 0.40 0.39 0.36 0.37 0.34 0.33 0.36 0.37 0.33 0.30 0.33 0.32 0.31 0.31 0.30 0.27 0.24 0.21 0.21 0.20 0.18 0.16 0.14 0.14 0.16 0.23 0.26 0.23 0.14
0.27 0.26 0.28 0.29 0.28 0.27 0.27 0.27 0.27 0.28 0.28 0.31 0.31 0.33 0.33 0.31 0.30 0.27 0.25 0.27 0.36 0.41 0.39 0.31 0.25 0.25 0.27 0.30 0.32 0.29 0.25 0.19 0.16 0.14 0.13 0.12 0.10 0.10 0.11 0.13 0.16 0.22 0.21 0.16
0.24 0.25 0.24 0.20 0.18 0.19 0.20 0.19 0.17 0.18 0.20 0.23 0.24 0.21 0.21 0.21 0.22 0.24 0.25 0.27 0.31 0.31 0.30 0.27 0.22 0.19 0.21 0.27 0.28 0.22 0.16 0.12 0.09 0.08 0.08 0.07 0.06 0.06 0.08 0.09 0.13 0.15 0.13 0.10
0.24 0.19 0.16 0.15 0.13 0.13 0.14 0.11 0.10 0.13 0.14 0.16 0.15 0.16 0.17 0.18 0.21 0.22 0.22 0.24 0.25 0.25 0.22 0.19 0.17 0.18 0.17 0.18 0.21 0.18 0.13 0.12 0.07 0.04 0.04 0.05 0.05 0.05 0.05 0.07 0.09 0.10 0.09 0.09
0.17 0.11 0.08 0.10 0.09 0.10 0.11 0.09 0.08 0.08 0.09 0.10 0.11 0.12 0.14 0.15 0.16 0.16 0.18 0.22 0.25 0.25 0.21 0.15 0.13 0.14 0.13 0.12 0.14 0.13 0.10 0.10 0.08 0.05 0.04 0.04 0.04 0.04 0.03 0.04 0.05 0.06 0.06 0.08
0.12 0.07 0.07 0.08 0.07 0.08 0.09 0.06 0.06 0.06 0.07 0.08 0.08 0.08 0.10 0.11 0.10 0.13 0.16 0.21 0.23 0.18 0.14 0.11 0.10 0.09 0.08 0.08 0.09 0.09 0.08 0.07 0.05 0.04 0.05 0.05 0.03 0.03 0.03 0.02 0.04 0.06 0.06 0.08
0.08 0.07 0.08 0.07 0.06 0.06 0.07 0.05 0.05 0.05 0.05 0.05 0.06 0.06 0.07 0.08 0.08 0.12 0.16 0.22 0.20 0.14 0.11 0.09 0.09 0.08 0.06 0.05 0.05 0.06 0.06 0.05 0.04 0.03 0.03 0.03 0.02 0.02 0.03 0.03 0.03 0.05 0.06 0.07
0.07 0.07 0.09 0.08 0.07 0.06 0.06 0.06 0.05 0.04 0.04 0.05 0.06 0.05 0.08 0.09 0.09 0.11 0.13 0.14 0.13 0.09 0.08 0.08 0.08 0.06 0.05 0.04 0.03 0.03 0.05 0.04 0.03 0.02 0.02 0.02 0.02 0.02 0.03 0.04 0.04 0.04 0.04 0.06
0.08 0.08 0.08 0.08 0.08 0.07 0.06 0.08 0.07 0.05 0.05 0.06 0.05 0.06 0.08 0.09 0.09 0.08 0.09 0.07 0.06 0.06 0.07 0.07 0.07 0.05 0.04 0.03 0.02 0.03 0.03 0.03 0.03 0.02 0.02 0.02 0.02 0.02 0.03 0.03 0.04 0.04 0.04 0.05
0.10 0.09 0.08 0.08 0.09 0.10 0.09 0.08 0.06 0.06 0.06 0.05 0.05 0.05 0.05 0.06 0.09 0.07 0.06 0.05 0.04 0.03 0.04 0.05 0.05 0.04 0.04 0.02 0.02 0.02 0.02 0.02 0.02 0.02 0.02 0.02 0.02 0.02 0.02 0.03 0.03 0.04 0.04 0.04
0.13 0.11 0.09 0.09 0.11 0.12 0.09 0.07 0.05 0.05 0.04 0.04 0.04 0.04 0.03 0.03 0.04 0.04 0.03 0.03 0.04 0.03 0.02 0.02 0.03 0.03 0.03 0.03 0.02 0.02 0.01 0.01 0.01 0.01 0.01 0.01 0.01 0.01 0.02 0.03 0.03 0.03 0.03 0.04
0.20 0.15 0.14 0.14 0.12 0.09 0.07 0.07 0.06 0.04 0.05 0.04 0.03 0.03 0.03 0.03 0.03 0.03 0.03 0.03 0.03 0.03 0.02 0.01 0.02 0.02 0.02 0.02 0.02 0.02 0.01 0.01 0.01 0.01 0.01 0.01 0.01 0.01 0.02 0.03 0.03 0.03 0.03 0.04
0.36 0.27 0.21 0.18 0.14 0.09 0.08 0.08 0.06 0.04 0.04 0.04 0.04 0.03 0.03 0.04 0.04 0.03 0.03 0.02 0.02 0.02 0.02 0.01 0.01 0.01 0.02 0.02 0.02 0.02 0.01 0.01 0.01 0.01 0.01 0.01 0.02 0.02 0.02 0.02 0.02 0.02 0.03 0.03

GEFSNGP_prec_meanprecacc_174.txt.gz
Total_Precipitation_Accumulation
0.39 0.39 0.39 0.39 0.31 0.28 0.34 0.42 0.70 0.99 1.32 1.62 1.68 1.73 1.80 1.94 1.86 1.62 1.46 1.30 1.16 1.13 1.17 1.13 1.08 1.06 1.06 1.12 1.13 1.21 1.26 1.25 1.18 1.10 1.07 1.03 0.94 0.85 0.75 0.68 0.66 0.66 0.60 0.54
0.38 0.34 0.43 0.40 0.39 0.39 0.44 0.52 0.74 1.08 1.51 1.72 1.72 1.70 1.77 1.86 1.77 1.59 1.36 1.21 1.13 1.11 1.17 1.13 1.07 1.02 0.98 1.04 1.07 1.13 1.17 1.14 1.09 1.03 1.02 0.96 0.91 0.86 0.77 0.67 0.62 0.60 0.56 0.53
0.58 0.38 0.57 0.81 0.61 0.61 0.66 0.68 0.86 1.25 1.47 1.53 1.64 1.64 1.69 1.79 1.86 1.74 1.49 1.40 1.40 1.42 1.39 1.27 1.14 1.05 1.02 1.06 1.09 1.12 1.16 1.10 1.08 1.04 0.97 0.91 0.77 0.72 0.71 0.67 0.57 0.53 0.49 0.47
0.58 0.70 1.13 1.01 0.56 0.61 0.71 0.74 0.79 0.93 1.07 1.24 1.36 1.41 1.56 1.75 1.86 1.83 1.72 1.68 1.69 1.63 1.48 1.35 1.23 1.16 1.11 1.06 1.11 1.17 1.12 1.04 0.95 0.93 0.88 0.81 0.76 0.68 0.63 0.61 0.57 0.55 0.54 0.49
0.79 1.06 1.23 1.00 0.60 0.55 0.80 0.96 0.77 0.80 0.82 0.85 0.89 1.05 1.43 1.61 1.66 1.68 1.70 1.64 1.54 1.46 1.38 1.30 1.20 1.14 1.05 1.01 0.99 1.00 0.96 0.88 0.79 0.77 0.84 0.83 0.76 0.71 0.64 0.60 0.57 0.53 0.52 0.47
0.89 1.20 1.46 1.21 0.57 0.38 0.69 1.30 0.91 0.81 0.82 0.84 0.95 1.17 1.28 1.24 1.23 1.26 1.29 1.30 1.30 1.27 1.20 1.14 1.06 0.96 0.90 0.91 0.90 0.87 0.85 0.81 0.70 0.67 0.73 0.79 0.73 0.67 0.59 0.55 0.53 0.46 0.45 0.46
0.88 1.13 1.28 0.72 0.42 0.54 1.18 1.51 1.02 0.87 0.85 0.93 1.08 1.06 0.86 0.80 0.87 0.98 1.05 1.08 1.10 1.14 1.14 1.02 0.87 0.81 0.83 0.83 0.81 0.69 0.69 0.73 0.72 0.68 0.66 0.65 0.66 0.66 0.60 0.54 0.53 0.51 0.50 0.50
0.90 1.22 1.34 0.57 0.46 0.84 1.00 0.78 0.77 0.79 0.77 0.78 0.74 0.63 0.60 0.62 0.66 0.71 0.82 0.93 0.92 0.93 0.91 0.83 0.78 0.79 0.81 0.78 0.69 0.63 0.69 0.75 0.73 0.68 0.57 0.57 0.66 0.68 0.61 0.55 0.51 0.50 0.52 0.53
0.94 1.10 0.82 0.42 0.45 0.52 0.51 0.58 0.59 0.58 0.56 0.51 0.51 0.47 0.46 0.53 0.59 0.63 0.68 0.75 0.75 0.72 0.75 0.79 0.81 0.82 0.80 0.74 0.64 0.66 0.70 0.72 0.70 0.65 0.60 0.60 0.64 0.66 0.63 0.57 0.48 0.45 0.48 0.51
0.62 0.64 0.43 0.34 0.32 0.32 0.35 0.43 0.46 0.49 0.54 0.47 0.47 0.47 0.45 0.48 0.56 0.63 0.65 0.63 0.63 0.65 0.66 0.72 0.72 0.69 0.66 0.58 0.58 0.66 0.70 0.67 0.65 0.67 0.67 0.61 0.57 0.54 0.51 0.48 0.43 0.41 0.42 0.42
0.60 0.49 0.42 0.40 0.33 0.27 0.29 0.35 0.39 0.45 0.53 0.53 0.50 0.54 0.51 0.50 0.55 0.60 0.63 0.62 0.64 0.65 0.65 0.63 0.61 0.57 0.54 0.54 0.59 0.65 0.64 0.59 0.59 0.63 0.62 0.57 0.48 0.41 0.37 0.31 0.23 0.24 0.26 0.26
0.60 0.46 0.48 0.43 0.31 0.28 0.35 0.38 0.39 0.43 0.53 0.50 0.48 0.54 0.58 0.58 0.55 0.53 0.56 0.57 0.59 0.56 0.57 0.56 0.52 0.51 0.51 0.50 0.50 0.57 0.57 0.52 0.49 0.50 0.49 0.43 0.39 0.34 0.26 0.18 0.14 0.11 0.11 0.12
0.32 0.29 0.29 0.29 0.31 0.38 0.44 0.43 0.48 0.51 0.47 0.40 0.45 0.50 0.55 0.59 0.52 0.49 0.48 0.48 0.50 0.46 0.47 0.49 0.47 0.49 0.48 0.42 0.43 0.49 0.50 0.46 0.40 0.35 0.38 0.36 0.32 0.31 0.33 0.21 0.12 0.08 0.07 0.09
0.27 0.31 0.38 0.43 0.49 0.50 0.47 0.42 0.41 0.40 0.38 0.36 0.41 0.46 0.47 0.49 0.44 0.43 0.46 0.44 0.39 0.39 0.40 0.42 0.43 0.44 0.38 0.35 0.37 0.40 0.36 0.30 0.28 0.30 0.30 0.27 0.24 0.22 0.24 0.29 0.26 0.21 0.12 0.08
0.35 0.38 0.44 0.43 0.43 0.39 0.35 0.32 0.32 0.33 0.34 0.37 0.37 0.39 0.40 0.42 0.42 0.38 0.38 0.35 0.34 0.37 0.39 0.35 0.33 0.36 0.34 0.33 0.33 0.32 0.29 0.26 0.24 0.23 0.22 0.21 0.18 0.15 0.14 0.17 0.24 0.27 0.24 0.15
0.28 0.26 0.28 0.30 0.29 0.28 0.28 0.29 0.29 0.29 0.30 0.32 0.33 0.34 0.34 0.33 0.31 0.28 0.26 0.28 0.38 0.43 0.40 0.33 0.27 0.28 0.28 0.32 0.34 0.32 0.27 0.21 0.18 0.16 0.15 0.14 0.12 0.11 0.12 0.14 0.17 0.22 0.22 0.16
0.25 0.25 0.25 0.22 0.19 0.20 0.22 0.21 0.18 0.19 0.21 0.25 0.26 0.22 0.22 0.22 0.24 0.25 0.26 0.29 0.33 0.33 0.31 0.29 0.23 0.20 0.22 0.28 0.30 0.24 0.18 0.15 0.12 0.10 0.11 0.09 0.08 0.07 0.09 0.10 0.14 0.16 0.14 0.10
0.24 0.20 0.18 0.17 0.15 0.15 0.16 0.13 0.12 0.15 0.17 0.18 0.17 0.17 0.18 0.20 0.23 0.24 0.25 0.26 0.28 0.27 0.23 0.20 0.18 0.19 0.18 0.19 0.22 0.19 0.15 0.14 0.10 0.07 0.06 0.07 0.06 0.06 0.06 0.08 0.10 0.10 0.10 0.09
0.18 0.12 0.10 0.11 0.10 0.11 0.12 0.10 0.10 0.12 0.12 0.12 0.13 0.14 0.15 0.17 0.17 0.18 0.19 0.23 0.26 0.26 0.22 0.15 0.14 0.15 0.13 0.13 0.15 0.13 0.11 0.12 0.11 0.07 0.06 0.05 0.05 0.04 0.03 0.04 0.05 0.07 0.07 0.08
0.13 0.08 0.07 0.08 0.08 0.09 0.10 0.08 0.09 0.09 0.09 0.09 0.09 0.10 0.12 0.12 0.11 0.13 0.17 0.22 0.23 0.19 0.14 0.12 0.10 0.10 0.09 0.08 0.10 0.09 0.09 0.09 0.08 0.06 0.06 0.06 0.04 0.03 0.03 0.03 0.04 0.06 0.07 0.09
0.09 0.08 0.08 0.08 0.08 0.08 0.09 0.08 0.07 0.07 0.07 0.07 0.08 0.08 0.09 0.10 0.09 0.12 0.17 0.23 0.20 0.15 0.12 0.10 0.10 0.08 0.07 0.06 0.06 0.07 0.07 0.06 0.06 0.05 0.04 0.04 0.03 0.03 0.03 0.03 0.04 0.06 0.07 0.08
0.08 0.08 0.10 0.10 0.10 0.09 0.09 0.08 0.07 0.07 0.07 0.07 0.07 0.07 0.09 0.10 0.10 0.11 0.13 0.15 0.13 0.10 0.09 0.08 0.08 0.07 0.06 0.05 0.03 0.04 0.05 0.05 0.04 0.04 0.04 0.03 0.03 0.03 0.04 0.05 0.05 0.05 0.05 0.07
0.09 0.09 0.10 0.10 0.10 0.09 0.08 0.09 0.09 0.08 0.07 0.07 0.06 0.07 0.09 0.10 0.10 0.09 0.09 0.07 0.06 0.06 0.07 0.08 0.07 0.06 0.05 0.04 0.03 0.03 0.04 0.05 0.04 0.04 0.03 0.03 0.03 0.03 0.03 0.04 0.05 0.05 0.05 0.06
0.12 0.11 0.10 0.09 0.10 0.11 0.11 0.10 0.08 0.07 0.07 0.06 0.05 0.05 0.06 0.07 0.10 0.08 0.07 0.06 0.05 0.04 0.04 0.05 0.06 0.05 0.04 0.03 0.02 0.03 0.03 0.03 0.03 0.03 0.03 0.03 0.03 0.03 0.03 0.04 0.04 0.04 0.04 0.04
0.17 0.15 0.12 0.10 0.12 0.14 0.11 0.08 0.07 0.06 0.05 0.05 0.04 0.04 0.04 0.04 0.05 0.05 0.04 0.04 0.04 0.04 0.03 0.03 0.03 0.04 0.03 0.03 0.03 0.03 0.02 0.02 0.02 0.02 0.02 0.02 0.02 0.01 0.02 0.03 0.04 0.03 0.03 0.04
0.25 0.20 0.16 0.15 0.13 0.11 0.08 0.08 0.07 0.06 0.06 0.05 0.04 0.03 0.03 0.04 0.04 0.05 0.04 0.04 0.04 0.04 0.03 0.02 0.02 0.03 0.03 0.03 0.03 0.02 0.02 0.02 0.02 0.02 0.01 0.01 0.01 0.01 0.02 0.03 0.03 0.03 0.03 0.04
0.40 0.30 0.24 0.20 0.15 0.11 0.10 0.10 0.08 0.05 0.05 0.05 0.05 0.04 0.04 0.05 0.05 0.04 0.03 0.03 0.03 0.03 0.02 0.02 0.02 0.02 0.02 0.03 0.02 0.02 0.02 0.02 0.01 0.01 0.01 0.02 0.02 0.02 0.02 0.02 0.02 0.03 0.03 0.03

GEFSNGP_prec_meanprecacc_180.txt.gz
Total_Precipitation_Accumulation
0.39 0.39 0.39 0.39 0.32 0.29 0.35 0.44 0.73 1.04 1.36 1.65 1.75 1.77 1.83 1.97 1.88 1.64 1.49 1.34 1.20 1.17 1.21 1.17 1.13 1.11 1.10 1.16 1.16 1.26 1.30 1.30 1.27 1.22 1.17 1.11 1.03 0.94 0.81 0.73 0.70 0.73 0.68 0.63
0.39 0.34 0.43 0.41 0.40 0.40 0.46 0.54 0.76 1.11 1.54 1.74 1.75 1.72 1.80 1.89 1.81 1.62 1.38 1.23 1.16 1.15 1.21 1.17 1.11 1.06 1.01 1.06 1.10 1.17 1.21 1.18 1.14 1.10 1.12 1.05 0.98 0.94 0.84 0.73 0.67 0.66 0.65 0.62
0.59 0.39 0.58 0.84 0.63 0.61 0.68 0.70 0.88 1.28 1.51 1.56 1.65 1.66 1.72 1.81 1.88 1.76 1.51 1.42 1.43 1.45 1.42 1.30 1.17 1.07 1.05 1.09 1.13 1.17 1.21 1.14 1.13 1.10 1.05 0.99 0.83 0.79 0.78 0.74 0.63 0.58 0.55 0.53
0.59 0.72 1.17 1.05 0.57 0.62 0.72 0.76 0.81 0.95 1.10 1.27 1.39 1.44 1.59 1.76 1.89 1.86 1.74 1.71 1.72 1.67 1.52 1.38 1.26 1.19 1.13 1.09 1.14 1.21 1.18 1.10 1.01 1.00 0.95 0.89 0.84 0.77 0.71 0.68 0.63 0.61 0.58 0.53
0.82 1.10 1.28 1.03 0.61 0.56 0.83 1.00 0.79 0.82 0.85 0.88 0.92 1.09 1.46 1.62 1.69 1.71 1.72 1.68 1.58 1.50 1.42 1.34 1.23 1.16 1.07 1.04 1.02 1.05 1.01 0.94 0.85 0.84 0.90 0.91 0.87 0.80 0.73 0.67 0.64 0.59 0.57 0.52
0.92 1.24 1.51 1.25 0.57 0.38 0.71 1.33 0.93 0.83 0.85 0.88 1.00 1.23 1.32 1.26 1.24 1.28 1.32 1.34 1.35 1.32 1.25 1.19 1.10 0.99 0.93 0.94 0.94 0.92 0.89 0.87 0.76 0.73 0.80 0.86 0.82 0.76 0.66 0.62 0.60 0.52 0.51 0.52
0.92 1.18 1.33 0.75 0.43 0.55 1.22 1.55 1.04 0.90 0.90 0.99 1.15 1.12 0.90 0.83 0.89 0.99 1.08 1.13 1.16 1.22 1.21 1.08 0.90 0.84 0.86 0.86 0.85 0.74 0.72 0.77 0.76 0.73 0.72 0.72 0.72 0.74 0.66 0.60 0.59 0.56 0.55 0.55
0.98 1.30 1.40 0.60 0.49 0.87 1.05 0.83 0.81 0.85 0.85 0.86 0.81 0.68 0.65 0.66 0.69 0.73 0.86 0.98 0.99 1.03 0.99 0.87 0.80 0.82 0.85 0.82 0.73 0.67 0.72 0.79 0.77 0.74 0.63 0.63 0.73 0.75 0.68 0.61 0.57 0.56 0.56 0.57
1.00 1.18 0.91 0.49 0.51 0.58 0.57 0.64 0.66 0.67 0.63 0.57 0.56 0.52 0.50 0.56 0.62 0.66 0.72 0.81 0.83 0.81 0.80 0.82 0.83 0.86 0.86 0.79 0.69 0.70 0.74 0.76 0.75 0.69 0.66 0.66 0.71 0.73 0.69 0.63 0.54 0.50 0.52 0.54
0.65 0.67 0.47 0.40 0.37 0.37 0.41 0.51 0.53 0.56 0.60 0.51 0.52 0.51 0.49 0.51 0.59 0.67 0.71 0.69 0.69 0.70 0.70 0.75 0.75 0.73 0.71 0.63 0.62 0.71 0.75 0.72 0.71 0.73 0.72 0.66 0.63 0.59 0.58 0.54 0.48 0.44 0.45 0.45
0.62 0.50 0.43 0.41 0.34 0.29 0.32 0.37 0.41 0.48 0.57 0.56 0.53 0.58 0.55 0.55 0.61 0.65 0.67 0.67 0.68 0.69 0.69 0.66 0.65 0.62 0.59 0.59 0.64 0.71 0.68 0.63 0.63 0.67 0.67 0.63 0.52 0.45 0.41 0.35 0.27 0.27 0.29 0.28
0.62 0.47 0.49 0.44 0.32 0.29 0.36 0.39 0.40 0.45 0.55 0.52 0.50 0.58 0.62 0.63 0.60 0.57 0.59 0.61 0.64 0.60 0.60 0.60 0.56 0.55 0.56 0.55 0.55 0.61 0.61 0.56 0.53 0.55 0.54 0.49 0.44 0.38 0.30 0.20 0.16 0.13 0.12 0.13
0.36 0.31 0.31 0.30 0.32 0.39 0.44 0.44 0.48 0.52 0.49 0.42 0.47 0.54 0.61 0.65 0.56 0.52 0.51 0.53 0.55 0.51 0.51 0.53 0.51 0.54 0.52 0.46 0.47 0.52 0.53 0.50 0.43 0.40 0.45 0.43 0.38 0.36 0.35 0.23 0.13 0.09 0.08 0.10
0.30 0.34 0.40 0.45 0.51 0.50 0.48 0.42 0.42 0.40 0.39 0.38 0.42 0.49 0.52 0.54 0.47 0.46 0.49 0.47 0.42 0.43 0.45 0.47 0.48 0.48 0.42 0.38 0.41 0.44 0.40 0.33 0.32 0.34 0.35 0.33 0.30 0.27 0.27 0.31 0.28 0.22 0.13 0.09
0.36 0.39 0.45 0.44 0.43 0.40 0.35 0.33 0.33 0.34 0.35 0.38 0.38 0.41 0.42 0.45 0.44 0.40 0.40 0.37 0.35 0.39 0.41 0.38 0.36 0.40 0.38 0.36 0.36 0.35 0.31 0.28 0.27 0.27 0.26 0.24 0.22 0.19 0.18 0.20 0.26 0.28 0.25 0.16
0.30 0.28 0.30 0.31 0.30 0.29 0.28 0.30 0.29 0.30 0.31 0.34 0.34 0.35 0.35 0.34 0.33 0.29 0.28 0.30 0.41 0.47 0.43 0.35 0.31 0.31 0.32 0.35 0.37 0.34 0.28 0.23 0.20 0.19 0.18 0.17 0.16 0.15 0.15 0.16 0.20 0.24 0.23 0.17
0.27 0.27 0.26 0.23 0.21 0.21 0.22 0.21 0.19 0.21 0.23 0.26 0.27 0.23 0.23 0.24 0.26 0.26 0.28 0.32 0.36 0.38 0.35 0.33 0.28 0.23 0.24 0.29 0.32 0.26 0.18 0.16 0.13 0.12 0.13 0.12 0.11 0.10 0.10 0.12 0.16 0.18 0.15 0.11
0.26 0.22 0.19 0.18 0.16 0.16 0.16 0.14 0.13 0.17 0.19 0.19 0.19 0.19 0.20 0.22 0.25 0.26 0.27 0.30 0.31 0.29 0.25 0.22 0.21 0.21 0.19 0.20 0.24 0.20 0.15 0.15 0.11 0.08 0.08 0.09 0.09 0.08 0.07 0.09 0.11 0.11 0.11 0.10
0.19 0.12 0.10 0.11 0.11 0.11 0.13 0.12 0.13 0.14 0.14 0.15 0.15 0.16 0.17 0.19 0.20 0.20 0.22 0.27 0.31 0.30 0.24 0.17 0.16 0.16 0.15 0.14 0.16 0.14 0.12 0.13 0.12 0.09 0.08 0.07 0.07 0.06 0.05 0.05 0.06 0.07 0.08 0.09
0.13 0.08 0.08 0.09 0.08 0.09 0.12 0.10 0.12 0.12 0.11 0.12 0.11 0.13 0.16 0.15 0.13 0.15 0.20 0.27 0.28 0.22 0.17 0.14 0.12 0.11 0.09 0.09 0.11 0.10 0.10 0.10 0.09 0.07 0.07 0.08 0.06 0.05 0.04 0.03 0.05 0.07 0.07 0.09
0.10 0.08 0.09 0.09 0.08 0.09 0.11 0.10 0.10 0.10 0.09 0.09 0.10 0.11 0.13 0.13 0.11 0.14 0.21 0.27 0.24 0.17 0.14 0.12 0.12 0.09 0.08 0.07 0.07 0.08 0.09 0.09 0.07 0.05 0.05 0.05 0.05 0.04 0.04 0.04 0.05 0.07 0.07 0.09
0.09 0.09 0.11 0.11 0.11 0.11 0.11 0.11 0.10 0.11 0.10 0.09 0.08 0.08 0.11 0.14 0.12 0.14 0.17 0.19 0.16 0.11 0.10 0.10 0.10 0.08 0.07 0.05 0.04 0.06 0.07 0.07 0.05 0.05 0.05 0.04 0.04 0.04 0.05 0.06 0.06 0.06 0.06 0.07
0.10 0.10 0.11 0.11 0.12 0.10 0.10 0.12 0.13 0.11 0.10 0.09 0.08 0.08 0.10 0.13 0.12 0.11 0.13 0.10 0.08 0.08 0.09 0.09 0.08 0.07 0.06 0.04 0.04 0.05 0.06 0.07 0.06 0.05 0.04 0.04 0.04 0.04 0.05 0.05 0.05 0.05 0.05 0.06
0.13 0.13 0.11 0.10 0.11 0.13 0.13 0.12 0.11 0.10 0.09 0.08 0.06 0.07 0.07 0.09 0.12 0.10 0.09 0.08 0.07 0.05 0.05 0.06 0.06 0.05 0.04 0.03 0.04 0.05 0.05 0.05 0.04 0.04 0.04 0.04 0.04 0.04 0.04 0.04 0.04 0.05 0.04 0.04
0.18 0.16 0.13 0.12 0.15 0.16 0.14 0.11 0.10 0.08 0.07 0.06 0.06 0.06 0.05 0.05 0.06 0.07 0.06 0.05 0.05 0.04 0.03 0.03 0.04 0.04 0.04 0.05 0.04 0.04 0.04 0.03 0.03 0.02 0.02 0.02 0.02 0.02 0.02 0.04 0.04 0.03 0.03 0.04
0.26 0.21 0.18 0.18 0.16 0.14 0.11 0.12 0.10 0.08 0.07 0.07 0.05 0.05 0.05 0.06 0.07 0.07 0.06 0.05 0.05 0.04 0.03 0.02 0.03 0.04 0.05 0.06 0.04 0.03 0.03 0.03 0.02 0.02 0.02 0.02 0.02 0.02 0.03 0.04 0.03 0.03 0.04 0.04
0.41 0.31 0.26 0.22 0.17 0.13 0.12 0.13 0.11 0.08 0.06 0.07 0.06 0.05 0.06 0.07 0.08 0.06 0.06 0.05 0.04 0.03 0.03 0.02 0.03 0.03 0.04 0.03 0.03 0.03 0.03 0.02 0.01 0.01 0.02 0.02 0.03 0.03 0.03 0.03 0.03 0.03 0.04 0.04

GEFSNGP_prec_meanprecacc_186.txt.gz
Total_Precipitation_Accumulation
0.40 0.40 0.40 0.39 0.33 0.30 0.38 0.48 0.76 1.06 1.39 1.68 1.76 1.79 1.85 1.99 1.92 1.69 1.53 1.38 1.24 1.21 1.26 1.23 1.17 1.14 1.12 1.19 1.20 1.35 1.39 1.34 1.30 1.28 1.24 1.22 1.13 1.01 0.87 0.78 0.74 0.76 0.72 0.67
0.40 0.35 0.44 0.42 0.41 0.41 0.47 0.57 0.79 1.13 1.55 1.76 1.76 1.74 1.82 1.92 1.86 1.68 1.41 1.26 1.19 1.18 1.24 1.19 1.13 1.09 1.04 1.09 1.13 1.22 1.29 1.23 1.18 1.15 1.19 1.14 1.08 1.02 0.92 0.80 0.72 0.71 0.70 0.66
0.60 0.39 0.59 0.86 0.64 0.63 0.69 0.72 0.92 1.32 1.53 1.58 1.67 1.68 1.74 1.84 1.92 1.79 1.54 1.44 1.45 1.47 1.44 1.32 1.19 1.10 1.08 1.12 1.17 1.21 1.26 1.18 1.17 1.14 1.10 1.05 0.91 0.86 0.86 0.81 0.69 0.63 0.60 0.56
0.61 0.74 1.19 1.07 0.58 0.63 0.74 0.77 0.83 0.98 1.12 1.29 1.40 1.46 1.62 1.80 1.94 1.89 1.77 1.73 1.74 1.68 1.54 1.40 1.27 1.21 1.16 1.12 1.18 1.24 1.21 1.13 1.05 1.04 0.99 0.93 0.89 0.81 0.75 0.74 0.68 0.65 0.62 0.56
0.83 1.12 1.30 1.05 0.62 0.57 0.85 1.02 0.80 0.84 0.87 0.90 0.94 1.11 1.48 1.64 1.72 1.74 1.75 1.69 1.59 1.52 1.43 1.35 1.25 1.19 1.10 1.07 1.05 1.07 1.04 0.98 0.89 0.89 0.94 0.95 0.91 0.85 0.76 0.71 0.67 0.62 0.60 0.54
0.93 1.26 1.53 1.27 0.59 0.41 0.73 1.36 0.94 0.84 0.89 0.92 1.03 1.26 1.35 1.29 1.28 1.32 1.34 1.36 1.36 1.33 1.26 1.20 1.13 1.03 0.96 0.97 0.97 0.94 0.92 0.91 0.80 0.78 0.85 0.90 0.87 0.80 0.69 0.65 0.63 0.55 0.53 0.54
0.93 1.19 1.35 0.77 0.45 0.59 1.26 1.59 1.06 0.91 0.94 1.06 1.18 1.16 0.95 0.88 0.93 1.02 1.11 1.15 1.17 1.23 1.23 1.10 0.94 0.87 0.89 0.88 0.87 0.76 0.75 0.80 0.80 0.77 0.77 0.77 0.77 0.78 0.69 0.62 0.61 0.58 0.56 0.57
0.99 1.32 1.42 0.62 0.50 0.91 1.09 0.85 0.81 0.86 0.89 0.90 0.84 0.71 0.69 0.71 0.72 0.76 0.88 1.00 1.01 1.06 1.02 0.91 0.83 0.85 0.87 0.84 0.75 0.70 0.75 0.83 0.81 0.77 0.67 0.67 0.77 0.80 0.72 0.64 0.60 0.59 0.59 0.59
1.05 1.22 0.93 0.50 0.52 0.59 0.59 0.65 0.66 0.68 0.64 0.58 0.57 0.54 0.53 0.61 0.65 0.70 0.75 0.83 0.86 0.85 0.84 0.85 0.85 0.88 0.88 0.80 0.71 0.73 0.78 0.82 0.81 0.74 0.70 0.70 0.74 0.76 0.72 0.65 0.58 0.55 0.55 0.56
0.68 0.71 0.51 0.42 0.39 0.37 0.41 0.51 0.53 0.56 0.61 0.52 0.53 0.53 0.52 0.55 0.63 0.71 0.75 0.73 0.73 0.74 0.73 0.78 0.77 0.75 0.73 0.65 0.64 0.74 0.80 0.78 0.77 0.78 0.76 0.70 0.65 0.61 0.60 0.56 0.51 0.48 0.47 0.47
0.63 0.52 0.44 0.43 0.35 0.30 0.32 0.37 0.42 0.49 0.58 0.57 0.55 0.61 0.58 0.58 0.64 0.68 0.71 0.70 0.72 0.73 0.72 0.69 0.68 0.64 0.61 0.61 0.67 0.75 0.74 0.70 0.69 0.73 0.70 0.64 0.54 0.46 0.43 0.38 0.29 0.30 0.31 0.30
0.63 0.49 0.50 0.45 0.33 0.29 0.36 0.39 0.40 0.46 0.56 0.54 0.53 0.60 0.65 0.65 0.62 0.60 0.62 0.63 0.67 0.64 0.64 0.63 0.59 0.57 0.59 0.60 0.59 0.65 0.65 0.60 0.57 0.59 0.57 0.50 0.45 0.39 0.32 0.23 0.19 0.15 0.14 0.15
0.37 0.32 0.32 0.31 0.33 0.39 0.45 0.44 0.49 0.53 0.49 0.43 0.49 0.55 0.63 0.67 0.58 0.54 0.53 0.54 0.57 0.55 0.55 0.56 0.54 0.57 0.58 0.51 0.50 0.55 0.55 0.53 0.46 0.42 0.47 0.45 0.40 0.37 0.37 0.25 0.15 0.11 0.10 0.13
0.31 0.36 0.41 0.46 0.51 0.51 0.48 0.42 0.42 0.41 0.39 0.39 0.44 0.51 0.54 0.56 0.49 0.48 0.51 0.49 0.45 0.48 0.50 0.51 0.51 0.51 0.45 0.41 0.44 0.46 0.42 0.36 0.34 0.36 0.37 0.34 0.32 0.29 0.28 0.33 0.31 0.24 0.15 0.13
0.37 0.41 0.47 0.45 0.44 0.40 0.36 0.33 0.33 0.34 0.35 0.39 0.39 0.42 0.43 0.46 0.45 0.41 0.41 0.38 0.37 0.42 0.45 0.42 0.39 0.42 0.40 0.39 0.38 0.37 0.32 0.29 0.28 0.28 0.27 0.25 0.24 0.22 0.21 0.22 0.28 0.30 0.27 0.19
0.30 0.28 0.30 0.31 0.31 0.29 0.28 0.30 0.30 0.30 0.31 0.34 0.35 0.35 0.35 0.35 0.33 0.29 0.28 0.31 0.43 0.49 0.46 0.38 0.33 0.32 0.33 0.36 0.39 0.36 0.29 0.24 0.21 0.20 0.19 0.18 0.17 0.17 0.17 0.18 0.20 0.25 0.25 0.19
0.28 0.28 0.28 0.24 0.21 0.22 0.22 0.21 0.19 0.21 0.24 0.27 0.27 0.24 0.24 0.24 0.26 0.27 0.29 0.33 0.37 0.39 0.38 0.35 0.30 0.24 0.25 0.31 0.35 0.28 0.20 0.17 0.14 0.12 0.13 0.13 0.12 0.11 0.12 0.13 0.17 0.19 0.16 0.12
0.27 0.23 0.20 0.19 0.17 0.17 0.17 0.14 0.14 0.18 0.20 0.21 0.20 0.20 0.20 0.23 0.26 0.26 0.28 0.31 0.32 0.31 0.27 0.24 0.23 0.23 0.21 0.22 0.26 0.22 0.17 0.16 0.12 0.09 0.09 0.10 0.10 0.09 0.09 0.10 0.12 0.13 0.11 0.10
0.19 0.13 0.11 0.12 0.12 0.12 0.14 0.12 0.14 0.16 0.16 0.17 0.17 0.17 0.18 0.19 0.20 0.20 0.23 0.29 0.32 0.31 0.25 0.18 0.18 0.18 0.16 0.16 0.18 0.16 0.14 0.14 0.13 0.10 0.08 0.08 0.08 0.07 0.06 0.06 0.07 0.08 0.08 0.09
0.13 0.09 0.08 0.10 0.09 0.10 0.13 0.11 0.13 0.14 0.13 0.13 0.13 0.14 0.16 0.16 0.13 0.16 0.21 0.28 0.29 0.24 0.18 0.16 0.13 0.12 0.11 0.12 0.13 0.13 0.12 0.11 0.10 0.08 0.08 0.08 0.07 0.06 0.04 0.04 0.06 0.07 0.08 0.09
0.10 0.09 0.09 0.10 0.09 0.09 0.12 0.12 0.12 0.12 0.11 0.11 0.12 0.12 0.14 0.14 0.11 0.15 0.22 0.28 0.25 0.19 0.15 0.14 0.13 0.11 0.10 0.10 0.11 0.12 0.11 0.09 0.08 0.06 0.06 0.06 0.06 0.05 0.04 0.04 0.05 0.07 0.08 0.09
0.09 0.09 0.12 0.12 0.11 0.12 0.12 0.12 0.12 0.13 0.12 0.12 0.11 0.10 0.13 0.15 0.13 0.15 0.18 0.20 0.18 0.13 0.11 0.11 0.11 0.09 0.10 0.09 0.08 0.08 0.08 0.08 0.06 0.06 0.05 0.05 0.05 0.05 0.06 0.06 0.07 0.06 0.07 0.08
0.10 0.11 0.12 0.12 0.12 0.12 0.11 0.14 0.15 0.14 0.12 0.11 0.10 0.10 0.12 0.14 0.13 0.12 0.14 0.11 0.09 0.09 0.09 0.10 0.09 0.08 0.08 0.07 0.06 0.07 0.07 0.08 0.07 0.06 0.05 0.05 0.04 0.05 0.06 0.06 0.06 0.06 0.06 0.06
0.14 0.13 0.12 0.11 0.12 0.15 0.15 0.15 0.14 0.12 0.11 0.09 0.07 0.07 0.08 0.10 0.13 0.11 0.11 0.09 0.08 0.06 0.05 0.06 0.07 0.06 0.06 0.05 0.06 0.06 0.06 0.06 0.04 0.04 0.04 0.04 0.05 0.05 0.04 0.05 0.05 0.05 0.05 0.05
0.18 0.17 0.14 0.13 0.16 0.19 0.16 0.14 0.12 0.09 0.07 0.07 0.06 0.06 0.06 0.07 0.08 0.08 0.07 0.07 0.07 0.06 0.05 0.05 0.05 0.05 0.06 0.07 0.07 0.06 0.05 0.03 0.03 0.02 0.02 0.03 0.02 0.02 0.03 0.04 0.04 0.04 0.03 0.04
0.27 0.22 0.19 0.19 0.17 0.15 0.13 0.14 0.13 0.09 0.08 0.08 0.06 0.06 0.07 0.08 0.09 0.09 0.09 0.07 0.07 0.07 0.05 0.04 0.04 0.05 0.07 0.08 0.06 0.04 0.03 0.03 0.03 0.02 0.02 0.02 0.02 0.02 0.03 0.04 0.03 0.03 0.04 0.04
0.41 0.32 0.27 0.23 0.18 0.14 0.14 0.16 0.15 0.11 0.08 0.08 0.07 0.07 0.08 0.10 0.10 0.09 0.08 0.07 0.06 0.05 0.04 0.03 0.03 0.04 0.05 0.05 0.04 0.03 0.03 0.02 0.02 0.01 0.02 0.02 0.03 0.03 0.04 0.03 0.03 0.03 0.04 0.04

GEFSNGP_prec_meanprecacc_192.txt.gz
Total_Precipitation_Accumulation
0.42 0.41 0.41 0.40 0.34 0.31 0.40 0.50 0.77 1.07 1.40 1.69 1.77 1.80 1.87 2.00 1.93 1.70 1.53 1.38 1.24 1.22 1.29 1.26 1.22 1.20 1.19 1.26 1.29 1.45 1.50 1.44 1.37 1.33 1.30 1.26 1.18 1.05 0.94 0.84 0.78 0.79 0.74 0.70
0.42 0.36 0.44 0.42 0.42 0.43 0.51 0.61 0.82 1.15 1.56 1.77 1.76 1.74 1.82 1.93 1.87 1.69 1.42 1.27 1.20 1.20 1.27 1.23 1.18 1.13 1.07 1.13 1.17 1.27 1.37 1.32 1.24 1.19 1.25 1.20 1.16 1.08 0.98 0.84 0.76 0.74 0.72 0.68
0.61 0.40 0.59 0.87 0.66 0.67 0.75 0.78 0.96 1.34 1.54 1.59 1.67 1.68 1.75 1.86 1.93 1.79 1.55 1.44 1.46 1.49 1.46 1.35 1.22 1.13 1.11 1.16 1.20 1.24 1.30 1.23 1.22 1.19 1.16 1.13 1.01 0.94 0.92 0.84 0.72 0.66 0.63 0.59
0.61 0.74 1.19 1.09 0.61 0.68 0.81 0.84 0.88 1.00 1.14 1.30 1.41 1.47 1.63 1.81 1.95 1.90 1.78 1.74 1.76 1.70 1.55 1.41 1.29 1.24 1.19 1.15 1.20 1.27 1.24 1.17 1.10 1.10 1.06 1.02 0.98 0.89 0.81 0.78 0.72 0.69 0.65 0.58
0.83 1.12 1.31 1.07 0.64 0.61 0.91 1.08 0.85 0.85 0.88 0.91 0.95 1.12 1.49 1.65 1.74 1.76 1.77 1.72 1.63 1.54 1.44 1.36 1.26 1.20 1.13 1.10 1.07 1.09 1.06 1.02 0.94 0.94 1.00 1.02 0.97 0.91 0.82 0.77 0.73 0.67 0.63 0.56
0.93 1.27 1.54 1.29 0.61 0.43 0.76 1.42 0.98 0.85 0.89 0.93 1.04 1.27 1.36 1.30 1.30 1.34 1.37 1.40 1.40 1.36 1.28 1.21 1.13 1.04 0.97 0.98 0.98 0.96 0.94 0.94 0.83 0.82 0.89 0.95 0.92 0.85 0.74 0.69 0.68 0.59 0.56 0.56
0.93 1.20 1.35 0.77 0.46 0.60 1.28 1.62 1.08 0.92 0.94 1.06 1.19 1.17 0.96 0.89 0.96 1.04 1.15 1.20 1.21 1.25 1.25 1.12 0.94 0.88 0.90 0.89 0.88 0.78 0.76 0.83 0.83 0.81 0.81 0.80 0.80 0.81 0.73 0.65 0.63 0.60 0.59 0.59
1.00 1.32 1.43 0.62 0.50 0.92 1.11 0.86 0.83 0.87 0.90 0.90 0.85 0.72 0.70 0.73 0.75 0.79 0.94 1.06 1.05 1.09 1.05 0.93 0.84 0.86 0.90 0.85 0.76 0.71 0.77 0.85 0.84 0.80 0.71 0.70 0.80 0.85 0.76 0.66 0.62 0.61 0.61 0.61
1.06 1.23 0.94 0.51 0.52 0.60 0.59 0.66 0.67 0.68 0.64 0.59 0.58 0.55 0.55 0.64 0.69 0.73 0.81 0.90 0.90 0.89 0.88 0.88 0.86 0.89 0.90 0.83 0.72 0.74 0.80 0.84 0.83 0.76 0.72 0.72 0.77 0.80 0.75 0.68 0.59 0.57 0.57 0.58
0.68 0.71 0.51 0.43 0.39 0.38 0.42 0.52 0.54 0.57 0.61 0.53 0.54 0.55 0.55 0.58 0.66 0.74 0.79 0.79 0.78 0.77 0.77 0.80 0.77 0.76 0.75 0.67 0.65 0.75 0.82 0.80 0.78 0.79 0.78 0.73 0.68 0.64 0.62 0.58 0.52 0.49 0.49 0.49
0.63 0.52 0.44 0.43 0.36 0.31 0.33 0.37 0.42 0.50 0.59 0.59 0.57 0.63 0.61 0.61 0.67 0.71 0.74 0.74 0.75 0.76 0.75 0.72 0.69 0.64 0.62 0.63 0.68 0.77 0.77 0.71 0.71 0.75 0.73 0.68 0.57 0.49 0.45 0.39 0.31 0.31 0.32 0.31
0.64 0.49 0.51 0.46 0.33 0.30 0.37 0.40 0.41 0.47 0.57 0.55 0.54 0.62 0.67 0.67 0.64 0.62 0.65 0.66 0.69 0.67 0.66 0.66 0.61 0.58 0.59 0.61 0.61 0.68 0.68 0.62 0.60 0.63 0.62 0.54 0.47 0.41 0.34 0.25 0.22 0.17 0.16 0.17
0.37 0.33 0.32 0.31 0.33 0.40 0.45 0.45 0.49 0.53 0.50 0.44 0.50 0.57 0.64 0.68 0.58 0.55 0.55 0.56 0.59 0.58 0.57 0.58 0.56 0.58 0.59 0.53 0.52 0.57 0.57 0.56 0.51 0.48 0.51 0.47 0.41 0.39 0.39 0.28 0.18 0.14 0.13 0.16
0.31 0.36 0.42 0.46 0.52 0.51 0.49 0.43 0.42 0.41 0.40 0.39 0.44 0.51 0.55 0.57 0.50 0.48 0.52 0.50 0.46 0.49 0.52 0.52 0.52 0.51 0.46 0.43 0.46 0.49 0.45 0.41 0.39 0.40 0.40 0.36 0.34 0.32 0.32 0.37 0.35 0.28 0.19 0.16
0.37 0.41 0.47 0.45 0.44 0.40 0.36 0.33 0.33 0.35 0.35 0.39 0.39 0.42 0.43 0.46 0.46 0.42 0.42 0.40 0.40 0.43 0.46 0.43 0.40 0.42 0.41 0.40 0.40 0.39 0.34 0.32 0.31 0.30 0.29 0.28 0.27 0.25 0.25 0.27 0.32 0.34 0.31 0.24
0.30 0.28 0.30 0.32 0.31 0.29 0.28 0.30 0.30 0.30 0.31 0.34 0.35 0.35 0.35 0.35 0.34 0.30 0.29 0.32 0.45 0.51 0.47 0.39 0.34 0.34 0.34 0.38 0.40 0.37 0.30 0.25 0.22 0.21 0.20 0.20 0.19 0.19 0.19 0.21 0.24 0.29 0.29 0.23
0.28 0.28 0.28 0.24 0.22 0.22 0.22 0.22 0.20 0.22 0.25 0.27 0.28 0.24 0.24 0.24 0.27 0.27 0.30 0.34 0.38 0.40 0.38 0.36 0.31 0.25 0.26 0.32 0.35 0.30 0.21 0.18 0.15 0.13 0.14 0.13 0.12 0.12 0.13 0.15 0.19 0.22 0.18 0.14
0.27 0.23 0.20 0.19 0.17 0.17 0.17 0.15 0.15 0.19 0.21 0.21 0.20 0.20 0.20 0.23 0.26 0.26 0.28 0.32 0.34 0.32 0.28 0.25 0.24 0.23 0.21 0.23 0.27 0.24 0.18 0.18 0.13 0.10 0.10 0.11 0.10 0.09 0.09 0.11 0.13 0.14 0.13 0.11
0.19 0.13 0.11 0.12 0.12 0.12 0.14 0.13 0.14 0.16 0.17 0.17 0.17 0.17 0.18 0.19 0.20 0.21 0.23 0.30 0.34 0.33 0.27 0.19 0.19 0.19 0.17 0.17 0.20 0.17 0.15 0.15 0.14 0.11 0.09 0.09 0.09 0.08 0.06 0.06 0.08 0.09 0.09 0.10
0.14 0.09 0.09 0.10 0.09 0.10 0.13 0.12 0.14 0.15 0.14 0.14 0.14 0.14 0.16 0.16 0.13 0.16 0.22 0.29 0.31 0.25 0.20 0.17 0.14 0.13 0.12 0.13 0.15 0.15 0.14 0.13 0.12 0.09 0.09 0.09 0.08 0.07 0.05 0.05 0.07 0.08 0.08 0.10
0.11 0.09 0.10 0.10 0.09 0.10 0.12 0.13 0.13 0.13 0.13 0.12 0.13 0.13 0.14 0.14 0.12 0.15 0.23 0.29 0.27 0.20 0.17 0.15 0.14 0.12 0.11 0.12 0.13 0.15 0.13 0.12 0.10 0.07 0.06 0.07 0.06 0.05 0.05 0.04 0.05 0.07 0.08 0.09
0.09 0.10 0.12 0.12 0.12 0.12 0.12 0.13 0.13 0.14 0.13 0.14 0.13 0.11 0.13 0.15 0.13 0.15 0.19 0.21 0.19 0.14 0.12 0.11 0.11 0.10 0.11 0.11 0.10 0.10 0.11 0.10 0.08 0.07 0.06 0.05 0.05 0.05 0.06 0.06 0.07 0.06 0.07 0.08
0.11 0.12 0.13 0.13 0.12 0.12 0.12 0.15 0.17 0.16 0.14 0.12 0.11 0.11 0.13 0.14 0.13 0.13 0.14 0.12 0.10 0.10 0.10 0.11 0.10 0.09 0.09 0.08 0.08 0.08 0.09 0.09 0.07 0.07 0.05 0.05 0.05 0.05 0.06 0.06 0.07 0.06 0.06 0.07
0.14 0.14 0.12 0.11 0.12 0.16 0.16 0.15 0.15 0.14 0.13 0.10 0.09 0.09 0.10 0.10 0.13 0.12 0.11 0.10 0.10 0.08 0.07 0.08 0.09 0.07 0.07 0.06 0.07 0.07 0.07 0.06 0.05 0.04 0.04 0.05 0.05 0.05 0.05 0.05 0.05 0.05 0.05 0.05
0.19 0.18 0.15 0.13 0.16 0.19 0.17 0.15 0.13 0.10 0.08 0.08 0.07 0.08 0.07 0.08 0.09 0.10 0.09 0.08 0.08 0.07 0.06 0.06 0.06 0.06 0.07 0.07 0.08 0.07 0.06 0.04 0.03 0.03 0.03 0.03 0.03 0.02 0.03 0.04 0.04 0.04 0.04 0.04
0.27 0.22 0.20 0.19 0.18 0.16 0.14 0.15 0.14 0.10 0.09 0.08 0.08 0.07 0.08 0.10 0.10 0.11 0.10 0.09 0.09 0.08 0.06 0.05 0.06 0.07 0.08 0.09 0.07 0.05 0.05 0.04 0.03 0.02 0.02 0.02 0.02 0.02 0.03 0.04 0.04 0.03 0.04 0.04
0.42 0.33 0.28 0.24 0.19 0.15 0.15 0.18 0.16 0.12 0.09 0.09 0.09 0.08 0.09 0.11 0.11 0.10 0.09 0.08 0.07 0.06 0.05 0.04 0.05 0.06 0.06 0.07 0.05 0.05 0.05 0.04 0.02 0.02 0.02 0.03 0.03 0.04 0.04 0.03 0.03 0.04 0.04 0.04

GEFSNGP_prec_meanprecacc_198.txt.gz
Total_Precipitation_Accumulation
0.42 0.41 0.41 0.41 0.34 0.31 0.41 0.51 0.79 1.09 1.42 1.71 1.78 1.81 1.88 2.02 1.94 1.71 1.54 1.39 1.25 1.23 1.30 1.27 1.23 1.21 1.21 1.32 1.37 1.56 1.62 1.56 1.48 1.42 1.37 1.32 1.23 1.11 0.99 0.89 0.83 0.84 0.80 0.76
0.43 0.37 0.45 0.44 0.42 0.44 0.52 0.62 0.84 1.16 1.58 1.78 1.77 1.75 1.83 1.93 1.88 1.69 1.43 1.28 1.20 1.20 1.28 1.24 1.20 1.14 1.08 1.16 1.22 1.35 1.47 1.42 1.31 1.26 1.30 1.24 1.20 1.12 1.03 0.92 0.82 0.80 0.77 0.72
0.62 0.41 0.61 0.88 0.67 0.68 0.77 0.80 0.99 1.36 1.56 1.61 1.68 1.69 1.75 1.86 1.94 1.81 1.56 1.46 1.47 1.49 1.47 1.36 1.23 1.14 1.12 1.18 1.25 1.30 1.37 1.30 1.29 1.26 1.21 1.17 1.04 0.98 0.99 0.96 0.81 0.71 0.67 0.62
0.62 0.75 1.21 1.10 0.62 0.69 0.83 0.86 0.91 1.02 1.15 1.31 1.42 1.47 1.64 1.82 1.97 1.92 1.80 1.76 1.77 1.71 1.56 1.43 1.30 1.25 1.21 1.17 1.25 1.33 1.31 1.24 1.17 1.16 1.11 1.06 1.02 0.95 0.93 0.90 0.79 0.73 0.69 0.63
0.83 1.13 1.32 1.08 0.65 0.63 0.93 1.11 0.88 0.87 0.89 0.92 0.95 1.12 1.50 1.66 1.75 1.79 1.79 1.74 1.64 1.56 1.47 1.39 1.28 1.22 1.14 1.12 1.11 1.14 1.12 1.08 1.00 1.01 1.06 1.07 1.03 1.01 0.95 0.86 0.77 0.70 0.67 0.61
0.93 1.28 1.57 1.31 0.63 0.44 0.79 1.46 1.01 0.86 0.90 0.93 1.05 1.29 1.38 1.31 1.32 1.36 1.39 1.41 1.42 1.39 1.30 1.24 1.16 1.05 0.98 1.00 1.01 1.00 1.00 1.00 0.90 0.89 0.95 1.01 0.99 0.94 0.83 0.75 0.72 0.62 0.59 0.60
0.94 1.21 1.39 0.80 0.47 0.61 1.31 1.68 1.12 0.93 0.95 1.07 1.21 1.20 0.99 0.92 0.98 1.07 1.17 1.22 1.22 1.29 1.28 1.15 0.96 0.89 0.92 0.91 0.91 0.82 0.81 0.88 0.90 0.88 0.87 0.86 0.86 0.87 0.78 0.68 0.66 0.63 0.62 0.62
1.00 1.34 1.46 0.64 0.51 0.94 1.14 0.90 0.85 0.88 0.90 0.91 0.86 0.75 0.73 0.75 0.78 0.81 0.96 1.08 1.06 1.13 1.08 0.95 0.84 0.86 0.90 0.87 0.78 0.74 0.81 0.91 0.90 0.86 0.77 0.75 0.85 0.89 0.79 0.68 0.65 0.64 0.64 0.63
1.06 1.25 0.96 0.52 0.53 0.61 0.61 0.67 0.68 0.69 0.65 0.60 0.59 0.57 0.57 0.66 0.72 0.76 0.83 0.93 0.92 0.93 0.91 0.89 0.86 0.89 0.90 0.83 0.74 0.77 0.84 0.88 0.87 0.81 0.77 0.77 0.80 0.82 0.77 0.70 0.62 0.59 0.59 0.59
0.69 0.72 0.51 0.43 0.40 0.38 0.43 0.52 0.54 0.57 0.62 0.54 0.56 0.56 0.56 0.60 0.68 0.76 0.82 0.81 0.79 0.81 0.80 0.81 0.78 0.77 0.76 0.68 0.67 0.77 0.85 0.83 0.82 0.83 0.82 0.76 0.70 0.66 0.64 0.61 0.55 0.51 0.51 0.50
0.64 0.52 0.45 0.44 0.36 0.31 0.33 0.38 0.43 0.50 0.60 0.59 0.57 0.64 0.62 0.62 0.69 0.74 0.78 0.77 0.77 0.79 0.78 0.73 0.70 0.65 0.63 0.64 0.69 0.78 0.78 0.72 0.73 0.77 0.76 0.70 0.59 0.51 0.48 0.42 0.34 0.33 0.34 0.32
0.64 0.50 0.52 0.46 0.34 0.31 0.37 0.41 0.41 0.47 0.58 0.55 0.54 0.62 0.67 0.68 0.65 0.64 0.68 0.69 0.72 0.69 0.69 0.67 0.61 0.59 0.60 0.62 0.62 0.70 0.69 0.64 0.61 0.65 0.64 0.56 0.50 0.45 0.39 0.29 0.24 0.19 0.17 0.18
0.37 0.33 0.32 0.32 0.33 0.40 0.46 0.45 0.50 0.54 0.51 0.45 0.50 0.57 0.64 0.69 0.59 0.56 0.57 0.59 0.62 0.60 0.60 0.59 0.57 0.59 0.60 0.54 0.54 0.59 0.59 0.58 0.53 0.50 0.54 0.50 0.46 0.45 0.45 0.32 0.22 0.18 0.15 0.17
0.31 0.36 0.42 0.46 0.52 0.51 0.49 0.43 0.42 0.41 0.40 0.39 0.45 0.51 0.55 0.58 0.51 0.49 0.54 0.53 0.49 0.51 0.54 0.54 0.54 0.52 0.47 0.44 0.48 0.51 0.48 0.43 0.42 0.42 0.42 0.40 0.39 0.37 0.37 0.42 0.40 0.33 0.21 0.17
0.37 0.41 0.47 0.45 0.44 0.40 0.36 0.33 0.33 0.35 0.35 0.40 0.39 0.42 0.44 0.46 0.46 0.42 0.44 0.42 0.42 0.45 0.48 0.45 0.42 0.44 0.43 0.42 0.43 0.43 0.38 0.35 0.34 0.32 0.32 0.32 0.33 0.30 0.30 0.33 0.37 0.37 0.34 0.26
0.30 0.29 0.31 0.32 0.31 0.30 0.29 0.30 0.30 0.31 0.32 0.35 0.35 0.36 0.36 0.35 0.34 0.31 0.31 0.34 0.47 0.52 0.48 0.40 0.36 0.36 0.36 0.40 0.43 0.40 0.33 0.29 0.26 0.24 0.24 0.25 0.25 0.25 0.26 0.26 0.27 0.32 0.32 0.26
0.28 0.29 0.28 0.25 0.22 0.22 0.23 0.22 0.20 0.23 0.25 0.28 0.28 0.25 0.24 0.24 0.27 0.28 0.31 0.35 0.40 0.41 0.39 0.37 0.33 0.28 0.29 0.34 0.38 0.32 0.24 0.21 0.18 0.18 0.19 0.19 0.18 0.17 0.18 0.18 0.22 0.25 0.22 0.17
0.27 0.23 0.20 0.19 0.17 0.17 0.18 0.15 0.15 0.20 0.22 0.22 0.21 0.21 0.20 0.23 0.26 0.27 0.30 0.33 0.35 0.33 0.29 0.26 0.25 0.25 0.22 0.24 0.29 0.26 0.20 0.20 0.16 0.14 0.14 0.15 0.15 0.13 0.12 0.13 0.15 0.16 0.15 0.13
0.19 0.13 0.11 0.13 0.12 0.13 0.15 0.13 0.15 0.17 0.17 0.18 0.17 0.17 0.18 0.20 0.21 0.23 0.26 0.32 0.34 0.34 0.28 0.20 0.20 0.19 0.17 0.17 0.20 0.19 0.16 0.17 0.16 0.13 0.12 0.12 0.11 0.10 0.08 0.08 0.10 0.10 0.10 0.11
0.14 0.09 0.10 0.11 0.09 0.11 0.13 0.13 0.14 0.15 0.15 0.14 0.14 0.14 0.17 0.16 0.14 0.18 0.25 0.31 0.32 0.27 0.22 0.19 0.16 0.14 0.13 0.13 0.15 0.16 0.15 0.14 0.13 0.11 0.11 0.11 0.10 0.08 0.07 0.07 0.09 0.10 0.09 0.10
0.11 0.10 0.10 0.11 0.10 0.10 0.12 0.13 0.13 0.13 0.13 0.13 0.13 0.13 0.14 0.15 0.12 0.17 0.25 0.32 0.29 0.22 0.18 0.16 0.15 0.13 0.12 0.12 0.14 0.15 0.14 0.12 0.11 0.09 0.09 0.10 0.09 0.07 0.07 0.07 0.08 0.09 0.09 0.09
0.10 0.10 0.12 0.12 0.12 0.12 0.13 0.13 0.14 0.15 0.14 0.14 0.13 0.11 0.14 0.16 0.15 0.18 0.21 0.23 0.21 0.15 0.13 0.12 0.12 0.10 0.11 0.11 0.11 0.11 0.11 0.11 0.09 0.08 0.08 0.07 0.07 0.07 0.07 0.08 0.09 0.08 0.08 0.09
0.12 0.12 0.13 0.13 0.13 0.12 0.12 0.15 0.17 0.16 0.14 0.13 0.12 0.12 0.14 0.15 0.16 0.16 0.16 0.14 0.11 0.11 0.11 0.11 0.10 0.09 0.09 0.08 0.08 0.09 0.10 0.10 0.08 0.08 0.07 0.07 0.07 0.07 0.08 0.07 0.08 0.08 0.07 0.07
0.15 0.15 0.13 0.12 0.13 0.16 0.16 0.16 0.15 0.15 0.13 0.11 0.09 0.10 0.10 0.12 0.14 0.13 0.13 0.11 0.11 0.08 0.07 0.08 0.09 0.08 0.07 0.06 0.07 0.08 0.09 0.08 0.06 0.05 0.05 0.06 0.07 0.07 0.07 0.07 0.07 0.07 0.06 0.05
0.19 0.18 0.15 0.14 0.17 0.19 0.17 0.15 0.13 0.11 0.09 0.09 0.08 0.08 0.08 0.09 0.09 0.10 0.10 0.09 0.09 0.08 0.06 0.06 0.06 0.06 0.07 0.08 0.08 0.08 0.07 0.06 0.04 0.03 0.04 0.04 0.05 0.04 0.05 0.06 0.06 0.06 0.04 0.04
0.28 0.23 0.20 0.20 0.18 0.17 0.14 0.16 0.15 0.11 0.10 0.09 0.08 0.08 0.08 0.10 0.11 0.11 0.11 0.09 0.09 0.08 0.06 0.05 0.06 0.07 0.09 0.10 0.08 0.07 0.06 0.05 0.04 0.03 0.02 0.03 0.03 0.04 0.05 0.06 0.05 0.05 0.05 0.05
0.42 0.33 0.28 0.25 0.19 0.16 0.16 0.18 0.17 0.13 0.10 0.10 0.10 0.09 0.09 0.11 0.12 0.10 0.10 0.10 0.09 0.07 0.06 0.05 0.06 0.07 0.08 0.08 0.07 0.07 0.07 0.05 0.03 0.02 0.03 0.03 0.04 0.05 0.05 0.05 0.05 0.05 0.06 0.06